Hourly Data Report for August 04, 2022

SANDSPIT
BRITISH COLUMBIA
Current Station Operator: NAVCAN

53°15'15.000" N
131°48'50.000" W
6.40 m
1057052
71111
YZP

Download Data

Hourly Data (August 2022)
Hourly Data Report for August 4, 2022
TIME
LST
Temp Definition
°C
Dew Point Definition
°C
Rel Hum Definition
%
Precip. Amount Definition
mm

Wind Dir Definition
10's deg

Wind Spd Definition
km/h
Visibility Definition
km
Stn Press Definition
kPa
Hmdx Definition


Wind Chill Definition


Weather Definition


00:00 13.5 12.1 91 0.0 28 11 16.1 101.29     LegendNANA
01:00 13.7 11.6 87 0.0 28 11 16.1 101.32     LegendNANA
02:00 13.3 11.7 90 0.0 26 13 16.1 101.34     LegendNANA
03:00 12.9 11.5 91 0.0 26 17 16.1 101.37     LegendNANA
04:00 13.3 11.7 90 0.0 25 15 16.1 101.40     LegendNANA
05:00 13.6 11.8 89 0.0 26 15 16.1 101.42     LegendNANA
06:00 13.5 11.6 88 0.0 26 17 16.1 101.46     LegendNANA
07:00 14.1 11.8 86 0.0 26 17 16.1 101.48     LegendNANA
08:00 14.6 11.6 82 0.0 26 17 16.1 101.51     LegendNANA
09:00 14.9 12.1 83 0.0 26 21 16.1 101.57     LegendNANA
10:00 15.9 12.5 80 0.0 25 21 16.1 101.62     LegendNANA
11:00 16.6 13.0 79 0.0 25 18 16.1 101.66     LegendNANA
12:00 17.5 12.5 72 0.0 26 17 16.1 101.72     LegendNANA
13:00 16.0 13.0 82 0.2 1 15 11.3 101.79     Rain
14:00 15.1 13.2 89 0.2 33 4 8.1 101.83     Rain, Fog
15:00 16.3 13.4 83 0.0 2 5 16.1 101.85     LegendNANA
16:00 17.2 13.2 77 0.0 6 5 16.1 101.87     LegendNANA
17:00 17.5 13.5 77 0.0 8 9 16.1 101.87     LegendNANA
18:00 16.6 13.2 80 0.0 14 11 16.1 101.89     LegendNANA
19:00 16.4 13.0 80 0.0 15 8 16.1 101.92     LegendNANA
20:00 16.4 13.1 81 0.0   0 16.1 101.97     LegendNANA
21:00 15.6 12.2 80 0.0 33 15 16.1 102.02     LegendNANA
22:00 15.4 12.0 80 0.0 27 13 16.1 102.06     LegendNANA
23:00 15.1 11.5 79 0.0 27 13 16.1 102.09     LegendNANA

Notes on Data Quality.

Legend

  • E = Estimated
  • M = Missing
  • NA = Not Available*
  • [empty] = Indicates an unobserved value
Date modified: